EW1042 Weather Reports


time (UTC)temp
F
wind
direction
speed
knots
gust
knots
rain 1hr
in
rain 24hr
in
rain mn
in
humidity
%
barometer
mb
20260506221615 44 287 0.0 0.0 0.00 0.65 0.10 74 1015.2
20260506220059 44 315 0.0 0.0 0.00 0.65 0.10 74 1015.1
20260506214556 44 310 0.0 4.3 0.00 0.65 0.10 73 1015.0
20260506213037 43 323 0.0 0.9 0.00 0.65 0.10 74 1015.0
20260506211536 43 321 0.0 3.5 0.00 0.65 0.10 75 1014.7
20260506210017 43 315 0.0 0.9 0.00 0.65 0.10 75 1014.5
20260506204520 43 334 0.0 0.0 0.00 0.65 0.10 76 1014.4
20260506203057 43 328 0.0 0.0 0.00 0.65 0.10 76 1014.3
20260506201556 43 360 0.0 0.0 0.00 0.65 0.10 76 1014.3
20260506200045 43 334 0.0 3.5 0.00 0.65 0.10 77 1014.2
20260506194543 43 325 0.0 4.3 0.01 0.65 0.10 77 1014.2
20260506193043 42 17 0.0 5.2 0.01 0.65 0.10 77 1014.1
20260506191542 42 344 1.7 6.1 0.01 0.65 0.10 77 1014.3
20260506190040 42 351 0.0 2.6 0.01 0.65 0.10 77 1014.2
20260506184539 42 17 0.0 0.0 0.00 0.64 0.09 77 1014.2
20260506183039 42 38 1.7 5.2 0.00 0.64 0.09 77 1013.9
20260506181538 42 19 0.0 0.9 0.00 0.64 0.09 77 1013.7
20260506180007 42 340 0.0 3.5 0.00 0.64 0.09 77 1013.7
20260506174508 42 40 0.0 6.1 0.00 0.64 0.09 77 1013.6
20260506173055 42 14 0.0 4.3 0.00 0.64 0.09 77 1013.5
20260506171551 42 355 0.0 0.9 0.00 0.64 0.09 77 1013.3
20260506170031 42 15 0.0 4.3 0.00 0.66 0.09 77 1013.5
20260506164530 42 27 0.0 6.1 0.00 0.66 0.09 77 1013.5
20260506163029 42 13 0.0 7.0 0.00 0.66 0.09 77 1013.4
20260506161510 42 5 0.0 3.5 0.00 0.66 0.09 77 1013.7
20260506160052 42 33 0.0 0.0 0.00 0.66 0.09 77 1013.9
20260506154607 41 32 0.0 5.2 0.01 0.66 0.09 77 1013.9
20260506153034 41 9 0.0 4.3 0.01 0.66 0.09 77 1013.9
20260506151532 41 90 0.0 0.9 0.01 0.66 0.09 77 1013.6
20260506150013 41 89 0.0 0.0 0.02 0.66 0.09 77 1013.3
20260506144511 41 40 0.0 2.6 0.02 0.65 0.08 77 1013.4
20260506143104 41 13 0.9 7.0 0.02 0.65 0.08 77 1013.5
20260506141551 40 63 0.0 0.0 0.03 0.65 0.08 77 1013.4
20260506140033 40 109 0.0 7.0 0.02 0.64 0.07 77 1013.6
20260506134532 40 90 0.0 7.0 0.02 0.63 0.06 77 1013.5
20260506133014 40 92 0.0 7.0 0.02 0.63 0.06 77 1013.5
20260506131514 40 65 0.0 7.8 0.02 0.62 0.05 77 1013.5
20260506130054 40 76 0.0 3.5 0.02 0.64 0.05 77 1013.6
20260506124554 40 65 0.0 7.0 0.01 0.63 0.04 77 1013.5
20260506123036 40 48 0.0 6.1 0.03 0.63 0.04 77 1013.4
20260506121539 40 99 0.0 7.0 0.03 0.62 0.03 77 1013.3
20260506120014 40 74 0.0 0.0 0.04 0.62 0.03 77 1013.5
20260506114512 40 81 0.0 6.1 0.03 0.61 0.02 77 1013.5
20260506113053 40 78 0.0 7.0 0.04 0.60 0.01 77 1013.9
20260506111551 40 87 0.0 0.0 0.05 0.59 0.00 77 1014.2
20260506110032 40 88 0.0 0.0 0.06 0.57 0.57 77 1013.9
20260506104534 40 87 0.0 0.0 0.07 0.57 0.57 77 1013.6
20260506103014 40 109 0.0 0.0 0.06 0.56 0.56 77 1013.6
20260506101514 40 111 0.0 0.0 0.06 0.54 0.54 77 1013.9
20260506100055 40 111 0.0 0.0 0.05 0.53 0.52 77 1013.8
20260506094621 40 111 0.0 0.0 0.04 0.52 0.51 77 1013.6
20260506093037 40 113 0.0 0.0 0.04 0.51 0.50 77 1013.6
20260506091537 40 115 0.0 0.0 0.02 0.49 0.48 77 1013.9
20260506090024 40 94 0.0 0.0 0.02 0.48 0.47 77 1013.8
20260506084523 41 97 0.0 0.0 0.02 0.48 0.47 77 1013.9
20260506083022 41 104 0.0 0.0 0.02 0.47 0.46 77 1014.2
20260506081522 41 103 0.0 0.0 0.02 0.47 0.46 77 1014.0
20260506073020 42 104 0.0 0.0 0.01 0.45 0.44 77 1014.0
20260506071524 41 104 0.0 0.0 0.01 0.45 0.44 77 1014.0
20260506061543 41 104 0.0 0.0 0.04 0.44 0.43 76 1014.1
20260506044510 42 204 0.0 0.0 0.03 0.40 0.39 77 1014.9
20260506043007 42 204 0.0 0.0 0.04 0.39 0.38 77 1014.9
20260506041506 42 203 0.0 0.0 0.04 0.38 0.37 77 1014.8
20260506040005 43 206 0.0 0.0 0.05 0.38 0.37 77 1014.7
20260506034504 43 238 0.0 0.0 0.05 0.37 0.36 77 1014.7
20260506033045 43 244 0.0 7.0 0.04 0.35 0.34 77 1015.1
20260506031555 43 275 4.3 7.0 0.05 0.34 0.33 77 1015.2
20260506030029 43 267 0.0 0.9 0.07 0.33 0.32 77 1014.8
20260506024529 43 276 0.0 0.0 0.09 0.32 0.31 77 1014.6
20260506023027 44 233 0.0 0.0 0.09 0.30 0.28 77 1014.3
20260506021525 44 223 0.0 3.5 0.10 0.28 0.28 76 1014.3
20260506020024 44 242 0.0 0.0 0.08 0.26 0.25 76 1014.3
20260506014524 44 242 2.6 6.1 0.07 0.23 0.22 76 1014.3
20260506013022 44 237 4.3 8.7 0.07 0.21 0.20 76 1014.2
20260506011520 45 236 0.0 6.1 0.06 0.19 0.18 76 1013.9
20260506010000 45 228 0.0 5.2 0.07 0.18 0.17 76 1013.8
20260506004600 45 257 0.0 7.8 0.07 0.16 0.15 76 1013.8
20260506003045 45 271 1.7 7.8 0.08 0.14 0.13 75 1013.9
20260506001541 46 284 2.6 8.7 0.08 0.13 0.12 75 1013.5
20260506000037 47 301 3.5 8.7 0.06 0.11 0.10 73 1013.4
20260505234540 48 303 6.1 13.0 0.03 0.08 0.07 70 1013.1
20260505233031 51 315 11.3 15.6 0.01 0.06 0.05 72 1012.8
20260505231532 54 292 7.8 14.8 0.00 0.05 0.04 71 1012.2
20260505230028 55 276 6.1 11.3 0.00 0.05 0.04 71 1011.4
20260505224519 55 277 5.2 13.0 0.00 0.05 0.04 71 1011.3
20260505223016 56 295 6.1 10.4 0.00 0.05 0.04 70 1010.9